sat.trackr.live / text

‹ back to catalog

STARLINK-5728

NORAD 55588 · 2023-020V

PAYLOAD ACTIVE UNKNOWN

§ Identity

Operator
Country
US
Launch date
2023-02-12
Launch site
AFETR
Launch vehicle
Mass (kg)
RCS (m²)

Purposes: comms

External: N2YO · Heavens-Above · Gunter

§ Orbital elements

Epoch: 2026-09-20T22:50:17.135808Z

Period
94.27 min
Inclination
43.0051°
Eccentricity
0.0001892
Mean motion
15.27576992 rev/d
Perigee alt
481.8 km
Apogee alt
484.4 km
Semi-major
6,861.2 km
B*
2.3428e-5
RAAN
342.6367°
Arg perigee
282.0294°
Mean anomaly
78.0345°
Rev number
19,877

§ Raw data

STARLINK-57281 55588U 23020V   26263.95158722  .00000382  00000+0  23428-4 0  99912 55588  43.0051 342.6367 0001892 282.0294  78.0345 15.27576992198776

JSON: /api/v1/satellites/55588 · /tle

For live sub-satellite position, see the globe view (requires WebGL).

§ Visibility from observer

Set your observer location to see the next 7 days of passes ≥ 10°. The values pass through the URL so the page stays shareable.

No JS? Fill the form by hand. The geolocation button needs JavaScript.